Regional Weather Roundup
Issued by NWS

Home | Current Version | Previous Version | Text Only | Print | Product List | Glossary On
Versions: 1 2 3 4 5 6 7 8 9 10 11 12 13 14 15 16 17 18 19 20 21 22 23 24 25 26 27 28 29 30 31 32 33 34 35 36 37 38 39 40 41 42 43 44 45 46 47 48 49 50
000
ASUS43 KOAX 261610
RWRNE

WEATHER ROUNDUP FOR NEBRASKA
NATIONAL WEATHER SERVICE OMAHA NE
1100 AM CDT THU MAR 26 2015

NOTES: SATELLITE DATA IS BEING USED TO AUGMENT CLOUD COVER ABOVE
       12000 FEET.
       "FAIR" INDICATES FEW OR NO CLOUDS BELOW 12,000 FEET WITH NO
       SIGNIFICANT WEATHER AND/OR OBSTRUCTIONS TO VISIBILITY.

  * THESE STATIONS DO NOT REPORT WEATHER SUCH AS RAIN...SNOW OR FOG.

NEZ001>004-019>022-054>056-261700-
NEBRASKA PANHANDLE

CITY           SKY/WX    TMP DP  RH WIND       PRES   REMARKS
SCOTTSBLUFF    CLOUDY    42  29  59 W15G22    30.16F
ALLIANCE       CLOUDY    49  27  42 NW25G33   30.11S
CHADRON        CLOUDY    46  28  49 W21G28    30.13S
KIMBALL        CLOUDY    46  21  37 NW22G29   30.15S
SIDNEY         CLOUDY    51  24  34 NW24G32   30.14F
$$

NEZ057>060-069>072-079>082-261700-
SOUTHWEST NEBRASKA

CITY           SKY/WX    TMP DP  RH WIND       PRES   REMARKS
NORTH PLATTE   CLOUDY    42  24  49 S12       30.13F
IMPERIAL         N/A     46  32  58 W15       30.15F
LEXINGTON      CLOUDY    42  26  53 SW10      30.17F
MCCOOK         CLOUDY    44  30  57 SW10      30.18F
OGALLALA       CLOUDY    47  32  56 W10G18    30.12F
$$

NEZ005>010-023>029-035>040-094-261700-
NORTH CENTRAL NEBRASKA

CITY           SKY/WX    TMP DP  RH WIND       PRES   REMARKS
VALENTINE      CLOUDY    35  26  69 E3        30.08F
AINSWORTH      CLOUDY    38  26  61 S7        30.10S WCI  33
BROKEN BOW     CLOUDY    38  24  57 SW8       30.15F WCI  32
O`NEILL        CLOUDY    40  25  53 SW7       30.17F
ORD            PTSUNNY   40  23  50 SW9       30.17F WCI  34
THEDFORD       CLOUDY    40  25  54 SW15      30.10F WCI  32
$$

NEZ041-046>049-061>064-073>077-083>087-261700-
SOUTH CENTRAL NEBRASKA

CITY           SKY/WX    TMP DP  RH WIND       PRES   REMARKS
GRAND ISLAND   SUNNY     40  24  53 SW5       30.21F
AURORA         SUNNY     39  26  59 W5        30.21F
HASTINGS       MOSUNNY   41  25  53 W7        30.20F
HEBRON         SUNNY     39  25  56 CALM      30.24F
HOLDREGE       PTSUNNY   41  24  52 SW9       30.19F
KEARNEY *      PTSUNNY   39  23  52 SW8       30.20S WCI  34
YORK           SUNNY     37  25  60 CALM      30.23F
$$

NEZ011>018-030>034-042>045-261700-
NORTHEAST NEBRASKA

CITY           SKY/WX    TMP DP  RH WIND       PRES   REMARKS
NORFOLK        SUNNY     40  22  48 VRB7      30.20F
ALBION         MOSUNNY   38  22  52 CALM      30.20F
BLAIR          SUNNY     39  26  58 NW7       30.21F WCI  34
COLUMBUS *     SUNNY     39  19  45 W6        30.24F WCI  35
FREMONT        SUNNY     40  29  65 W7        30.23F
TEKAMAH        SUNNY     42  23  46 W17G26    30.22F
WAYNE          SUNNY     39  23  52 W8        30.21F WCI  33
$$

NEZ050>053-065>068-078-088>093-261700-
SOUTHEAST NEBRASKA

CITY           SKY/WX    TMP DP  RH WIND       PRES   REMARKS
LINCOLN        SUNNY     43  23  45 N5        30.24F
OMAHA EPPLEY   MOSUNNY   41  24  51 W9        30.23F
BEATRICE       SUNNY     40  28  61 NW6       30.24F
FALLS CITY     SUNNY     42  27  55 N9        30.23F
NEBRASKA CITY  SUNNY     41  23  49 N9        30.23F
PLATTSMOUTH    SUNNY     39  23  52 NW6       30.22F
$$

NEZ044-045-051>053-067-261700-
OMAHA AREA

CITY           SKY/WX    TMP DP  RH WIND       PRES   REMARKS
OMAHA EPPLEY   MOSUNNY   41  24  51 W9        30.23F
BLAIR          SUNNY     39  26  58 NW7       30.21F WCI  34
FREMONT        SUNNY     40  29  65 W7        30.23F
MILLARD        SUNNY     41  22  48 NW7       30.23S
OFFUTT AFB     SUNNY     41  22  47 W8        30.22F
PLATTSMOUTH    SUNNY     39  23  52 NW6       30.22F
WAHOO          FAIR      41  22  47 NW7       30.23F
$$


USA.gov is the U.S. government's official web portal to all federal, state and local government web resources and services.